GFSSW_con_lsi_132.txt.gz
Lid_Strength_Index
-1 -1 -1 -1 -1 -1 -1 -1 -1 -1 -1 -1 1 2 2 2 2 3 6 4 4 3 3 7 6 8 8 9 8 8 10 11 11 10 8 6 6 6 6 5 4 4 4 3 2
-1 -1 -1 -1 -1 -1 -1 -1 -1 -1 -1 -1 1 2 3 2 4 5 3 2 2 3 5 7 7 9 10 10 9 10 11 11 10 9 9 7 6 6 6 5 5 5 3 2 2
-1 -1 -1 -1 -1 -1 -1 -1 -1 -1 -1 -1 1 2 2 3 6 6 1 2 2 1 4 6 9 10 11 10 10 11 11 11 10 10 10 9 8 6 6 7 5 5 4 4 3
-1 -1 -1 -1 -1 -1 -1 -1 -1 1 -1 -1 -1 2 2 3 11 4 1 1 2 3 4 6 10 11 12 12 11 11 11 10 10 10 11 11 8 7 6 5 5 3 3 3 4
-1 -1 -1 -1 -1 -1 -1 -1 -1 0 0 -1 -0 2 2 5 7 3 1 1 3 5 6 7 11 12 10 12 11 11 12 11 11 11 11 10 10 7 7 5 6 3 3 4 4
-1 -1 -1 -1 -1 -1 -1 -1 0 0 1 -0 -1 -1 3 9 5 4 1 2 4 6 7 6 7 10 12 11 11 11 11 12 11 11 11 11 11 10 6 5 5 4 4 3 3
-1 -1 -1 -1 -1 -1 -1 -1 1 0 2 1 -1 0 4 6 5 4 2 3 3 6 8 6 7 8 10 12 11 11 13 12 11 10 11 11 13 12 8 5 5 4 4 4 3
-1 -2 -2 -1 -1 -1 -1 -1 0 1 1 2 -0 1 7 4 4 5 5 3 4 5 7 7 7 9 10 11 12 12 11 15 11 11 11 12 13 10 9 8 6 4 4 4 4
-1 -1 -1 -1 -1 -1 -1 -1 1 1 1 2 2 3 7 3 5 5 6 5 6 7 7 6 8 10 10 14 15 14 14 13 13 11 11 11 12 11 10 10 7 5 4 4 4
-1 -1 -1 -1 -1 -1 -1 -1 0 1 2 2 3 6 6 7 6 6 6 7 9 8 10 10 12 13 12 14 16 17 15 14 13 12 12 12 12 11 11 10 9 7 4 5 4
-1 -1 -1 -1 -1 -1 -0 1 6 7 4 8 7 7 6 4 5 7 7 8 10 10 14 12 14 16 12 12 10 13 13 14 13 12 12 12 11 9 11 10 9 8 7 5 4
-1 -1 -1 -1 -1 -1 -0 4 6 5 9 5 6 5 5 3 8 8 6 11 12 16 14 15 16 13 11 10 13 13 15 14 14 13 13 13 12 10 10 10 9 7 6 6 5
-1 -1 -1 -1 -1 -0 2 3 1 2 8 7 6 7 7 4 7 10 7 11 13 15 15 16 13 13 14 14 15 14 14 14 14 14 14 14 14 12 11 10 10 10 8 7 6
-1 -1 -1 -1 1 1 3 0 -0 2 12 11 9 7 7 6 9 6 7 10 13 14 14 15 14 14 14 14 13 16 14 14 15 14 16 14 16 13 11 11 11 9 7 7 6
-1 -1 -1 -1 2 3 2 -0 1 3 20 9 9 5 6 7 10 9 6 10 14 14 15 15 15 15 15 14 13 14 13 13 15 15 15 15 16 13 14 13 11 9 7 7 6
-0 -0 -1 0 1 1 -0 -0 3 14 20 13 9 10 10 9 9 9 10 10 10 14 13 15 13 13 13 15 13 14 14 15 15 15 18 14 15 14 14 13 10 9 8 8 6
-0 -0 -0 -0 3 -1 -0 4 14 18 11 13 13 11 11 12 12 11 12 14 16 18 17 16 15 14 14 15 14 14 14 18 18 18 19 18 18 14 12 11 10 10 9 10 9
0 -0 0 0 -1 -0 2 9 17 14 13 11 11 11 13 12 13 12 13 14 12 14 16 18 19 16 14 13 15 15 14 17 20 20 18 19 18 14 11 12 11 11 11 10 9
-0 1 1 0 -1 0 7 15 15 13 10 12 11 14 14 12 13 13 13 14 12 12 16 16 17 15 14 14 13 15 16 14 19 22 18 16 15 13 11 12 12 12 12 11 9
2 3 3 0 -0 3 9 13 12 10 10 10 15 13 15 15 14 14 14 12 12 12 12 14 18 15 15 13 14 14 14 18 17 20 21 19 18 15 13 13 13 12 12 11 10
3 7 2 -0 1 7 13 12 11 9 9 11 12 13 13 14 13 14 14 12 11 13 12 13 15 17 15 16 15 15 16 16 15 16 18 20 17 13 14 13 13 12 11 10 9
5 10 1 1 9 9 11 9 9 10 9 10 9 10 12 12 13 12 13 12 10 12 14 12 15 17 16 14 14 13 14 14 17 19 18 18 16 15 13 12 12 12 11 10 8
7 6 2 3 12 12 9 9 9 10 10 11 10 9 9 11 14 11 11 10 10 12 13 13 15 18 18 15 15 15 15 13 15 15 19 17 16 14 13 12 12 12 12 11 9
7 10 7 6 6 9 11 11 12 10 10 9 10 9 10 11 10 12 12 10 9 11 11 11 15 15 18 16 15 17 16 14 15 16 17 16 15 14 12 12 12 12 11 10 9
7 9 7 12 10 9 9 10 12 13 10 9 11 10 10 12 12 12 11 11 10 11 11 13 16 16 17 15 14 15 16 16 16 14 16 14 15 13 11 11 11 10 10 10 10
8 9 6 8 8 9 9 10 11 11 11 13 11 10 9 11 11 13 12 11 12 12 12 12 15 16 17 16 15 16 14 14 14 13 14 15 15 11 11 11 10 10 10 10 9
6 5 7 8 10 10 11 10 10 10 9 9 9 10 10 9 8 8 8 10 11 12 13 13 15 14 18 17 16 17 16 15 14 13 13 15 13 12 13 11 10 10 9 9 8

GFSSW_con_lsi_138.txt.gz
Lid_Strength_Index
-2 -2 -1 -1 -1 -1 -1 -1 -1 -1 -1 -1 -1 -1 -0 0 1 4 6 3 3 2 3 5 5 6 9 9 9 9 12 12 11 10 10 8 7 6 6 6 6 5 5 4 2
-2 -2 -1 -1 -1 -1 -1 -1 -1 -1 -1 -1 -0 -1 -0 0 2 4 2 1 1 2 5 6 7 8 10 10 10 11 12 11 8 8 9 8 7 6 7 6 7 6 4 3 2
-1 -1 -1 -1 -1 -1 -1 -1 -1 -1 -1 -1 -1 -0 -0 0 4 4 0 2 2 2 4 5 6 8 11 10 10 11 12 9 8 8 9 8 8 5 7 8 6 6 5 4 4
-1 -1 -1 -1 -1 -1 -1 -1 -1 -1 -1 -1 -1 -1 0 2 10 2 -1 0 2 3 4 6 7 10 11 12 11 13 10 9 8 9 10 10 8 7 6 7 5 4 4 4 4
-1 -1 -1 -1 -1 -1 -1 -1 -1 -1 -1 -1 -1 -1 1 5 5 1 -1 -1 2 4 5 6 8 8 11 11 12 13 11 10 9 10 10 10 11 9 7 6 6 4 4 4 4
-1 -1 -1 -1 -1 -1 -1 -1 -1 -1 -1 -1 -1 -1 3 9 2 0 -0 0 1 4 5 6 7 7 8 10 12 11 11 11 10 10 11 11 11 11 9 6 6 4 5 4 4
-1 -1 -1 -1 -1 -1 -1 -1 -1 -1 -1 -1 -1 0 4 6 1 1 -0 1 1 3 6 5 5 7 9 10 9 10 13 11 11 10 11 11 13 13 10 8 8 7 5 4 4
-1 -1 -1 -1 -1 -1 -1 -1 -1 -1 -1 -1 -1 1 7 1 -0 0 0 1 0 3 5 5 5 7 9 10 11 13 13 15 12 11 11 12 14 11 10 11 10 8 6 5 4
-1 -1 -1 -1 -1 -1 -1 -1 -1 -1 -1 -1 1 3 7 0 3 1 1 3 2 3 5 5 6 9 10 14 15 14 16 15 12 10 12 13 14 10 9 11 11 10 8 5 5
-1 -1 -1 -1 -1 -1 -1 -1 -1 -1 -0 0 1 6 4 6 3 2 1 3 4 5 7 7 8 11 11 13 17 16 15 14 13 12 12 14 14 12 11 11 11 11 10 8 5
-1 -1 -1 -1 -1 -1 -0 1 4 5 4 6 6 6 5 3 1 3 2 5 5 7 11 11 12 14 12 12 10 12 14 13 12 12 14 14 14 13 12 12 11 11 10 9 6
-1 -1 -1 -1 -1 -1 0 4 4 3 8 4 4 4 3 3 7 5 2 7 8 12 12 13 14 10 9 11 12 13 14 13 11 13 14 15 14 12 12 12 11 11 11 10 9
-0 -1 -1 -1 -1 0 2 3 -0 1 7 6 5 5 5 4 7 7 4 6 9 11 12 13 12 10 10 11 13 13 14 14 13 15 15 17 15 13 11 11 11 11 10 10 10
-0 -1 -1 -1 2 1 3 0 -0 0 11 10 8 6 5 5 8 4 3 6 9 11 11 11 11 13 12 12 11 15 11 13 14 16 18 16 18 15 12 12 11 11 11 11 10
-0 -1 -1 -1 3 4 2 -0 0 3 20 9 8 2 4 7 7 7 4 6 11 12 12 13 12 14 15 12 11 13 11 13 14 16 16 18 20 15 13 13 12 11 10 10 10
-0 -0 -1 1 1 1 -0 0 2 13 20 12 9 9 9 8 8 7 7 5 8 11 12 14 12 11 13 14 12 12 12 15 15 16 19 16 18 17 14 13 12 11 10 10 10
-0 -0 0 0 4 -0 0 4 13 17 10 13 12 10 10 11 10 9 10 11 13 16 16 16 15 12 12 15 15 14 17 20 20 21 21 16 18 16 14 13 12 11 10 10 10
-0 0 1 0 -0 -0 2 9 17 14 13 10 10 10 13 11 11 10 11 14 11 11 15 17 19 14 13 14 16 16 15 19 22 22 22 21 19 17 12 11 12 11 12 12 10
0 2 2 1 -0 1 7 14 15 12 10 10 11 13 13 11 11 11 12 13 11 10 15 16 16 13 12 12 13 16 18 13 19 23 22 21 18 15 14 14 14 13 13 13 12
4 5 4 0 -0 3 10 12 12 8 9 10 14 12 15 14 13 13 13 10 11 9 8 11 17 14 13 11 12 14 13 18 18 24 25 22 21 18 15 15 15 14 14 13 11
5 8 4 1 1 7 13 12 9 7 7 11 12 13 13 14 12 14 13 10 9 10 8 10 13 16 15 15 16 16 17 16 17 19 22 24 21 16 15 15 15 14 13 13 12
6 11 3 1 9 9 12 10 7 9 7 9 9 11 12 13 13 13 13 11 8 8 11 10 14 18 18 13 12 13 16 16 19 21 21 21 20 17 15 14 14 14 13 13 11
8 8 2 3 13 12 9 10 9 10 9 9 11 10 10 12 14 12 11 8 8 9 10 10 14 19 19 16 14 16 15 15 15 18 21 22 19 16 15 15 14 14 14 12 11
7 11 7 6 7 10 11 11 11 8 9 8 9 9 10 12 12 14 12 9 7 8 8 9 13 14 19 18 16 17 16 15 15 20 20 20 19 18 17 16 15 15 14 12 11
7 10 8 12 10 9 9 10 11 11 9 8 10 10 11 14 14 14 14 10 8 8 10 11 15 14 16 14 14 15 15 15 16 16 18 18 17 16 16 15 15 15 14 12 12
9 9 7 9 8 9 9 10 11 10 9 11 11 10 10 13 13 15 13 15 12 9 11 10 15 16 17 16 14 16 15 14 14 14 15 17 17 13 15 14 15 14 13 13 12
4 4 6 8 9 10 10 10 9 9 8 8 9 9 11 12 10 10 10 12 10 11 12 13 14 16 18 16 16 18 16 15 15 14 14 17 15 14 15 14 13 13 13 13 12

GFSSW_con_lsi_141.txt.gz
Lid_Strength_Index
-2 -2 -2 -1 -1 -1 -1 -1 -1 -1 -1 -1 -1 -1 -0 -0 1 3 5 2 2 2 2 5 4 6 8 9 8 9 13 14 13 12 11 10 10 8 7 6 6 5 6 4 2
-2 -2 -2 -2 -1 -1 -1 -1 -1 -1 -1 -1 -1 -0 -1 -0 2 4 -0 -1 1 1 5 6 7 7 10 10 10 9 13 13 10 10 10 11 10 8 8 8 7 7 4 3 2
-1 -1 -2 -2 -1 -1 -1 -1 -1 -1 -1 -1 -1 -1 -0 0 4 4 -2 -2 -1 2 4 5 6 7 9 10 11 11 12 10 9 9 10 10 11 10 9 9 6 7 6 4 4
-1 -1 -1 -1 -1 -1 -1 -1 -1 -1 -1 -1 -1 -1 -1 2 11 3 -2 -2 -1 2 5 6 7 9 10 12 10 13 11 9 8 8 11 10 10 11 10 7 5 5 4 4 4
-1 -1 -1 -1 -1 -1 -1 -1 -1 -1 -1 -1 -1 -1 1 5 5 1 -1 -1 1 2 5 7 8 9 10 11 10 12 12 10 9 10 10 11 11 11 10 7 7 4 4 5 4
-1 -1 -1 -1 -1 -1 -1 -1 -1 -1 -1 -1 -1 -1 3 9 1 0 0 1 1 2 4 6 7 7 8 10 10 10 10 10 10 11 11 12 12 11 10 8 7 5 5 5 4
-1 -1 -1 -1 -1 -1 -1 -1 -1 -1 -1 -1 -1 0 4 6 1 -0 -0 2 2 2 4 3 6 7 7 9 9 10 11 10 10 10 12 11 14 13 11 11 9 5 5 5 4
-1 -1 -1 -1 -1 -1 -1 -1 -1 -1 -1 -1 -1 1 6 1 -0 0 0 1 2 3 3 3 4 7 9 9 9 11 12 14 10 12 11 12 14 12 11 12 12 9 6 5 4
-0 -1 -1 -1 -1 -1 -1 -1 -1 -1 -1 -1 2 3 7 -0 3 1 1 3 2 3 3 2 3 7 10 11 13 13 15 14 12 10 13 14 15 11 10 12 12 12 8 5 5
-0 -1 -1 -1 -1 -1 -1 -1 -1 -1 -0 0 1 6 4 6 3 2 1 1 4 4 6 6 7 10 11 13 17 15 15 13 13 11 12 15 15 12 11 12 12 13 11 9 6
-0 -1 -1 -1 -1 -1 -0 1 4 5 4 7 6 7 5 3 1 3 1 3 4 6 10 9 11 14 12 11 11 12 13 13 12 10 12 13 14 13 12 14 13 13 12 10 8
-0 -1 -1 -1 -1 -1 0 4 5 4 8 5 5 4 3 3 7 5 2 7 8 11 9 11 13 10 9 10 12 12 13 14 11 11 13 14 15 13 13 13 13 12 12 11 8
-0 -0 -1 -1 -1 0 2 3 1 2 8 7 5 5 5 4 7 7 4 6 9 11 11 13 11 9 10 11 12 13 14 13 13 14 13 16 17 15 14 13 13 12 12 10 8
-0 -0 -1 -1 2 2 3 1 1 3 15 11 8 6 5 5 8 4 3 6 9 11 10 11 9 10 11 12 11 15 11 12 13 16 18 15 19 16 14 14 13 12 11 10 10
-0 -0 -1 -1 3 4 2 1 1 6 26 11 9 3 5 8 8 7 3 6 10 10 10 12 11 11 13 12 10 13 10 11 13 15 15 17 18 16 14 15 13 11 10 10 11
-0 -0 -0 2 2 1 0 2 5 16 24 13 8 9 9 8 8 6 7 5 6 10 10 10 9 9 10 12 10 10 11 15 14 16 19 17 18 19 14 14 13 11 11 11 11
0 0 2 2 5 1 1 4 15 23 14 13 12 9 10 10 10 10 10 11 13 15 15 13 13 10 11 14 12 11 14 19 20 20 21 17 19 16 15 13 12 12 11 11 10
0 0 2 2 1 1 3 10 23 19 16 9 10 10 12 10 10 10 11 13 10 11 14 16 17 13 11 13 14 13 14 18 22 22 21 20 20 16 12 12 13 12 12 11 11
0 3 4 2 1 2 7 15 19 17 10 11 11 13 13 11 11 11 12 12 11 10 15 16 16 11 11 11 12 15 16 13 18 22 22 19 19 16 15 14 14 15 15 13 12
4 4 5 1 1 4 10 14 15 9 10 10 16 13 16 13 13 13 13 10 11 9 8 12 16 12 11 10 11 13 12 16 16 22 23 21 22 17 16 15 15 15 15 14 13
5 8 4 1 2 7 13 13 11 8 8 11 13 13 12 13 12 13 13 10 9 9 8 10 13 14 12 13 14 15 15 15 15 17 20 24 22 17 15 14 14 15 15 15 13
7 11 3 2 9 9 12 11 8 10 9 9 10 11 13 12 13 13 13 11 7 8 12 10 13 18 15 12 11 12 14 14 16 19 19 20 20 18 17 15 15 15 15 15 13
9 9 4 4 13 12 12 11 11 11 11 10 11 10 9 12 14 12 11 9 8 8 10 10 14 18 17 15 13 14 13 13 13 16 19 21 20 17 17 16 17 16 15 15 13
9 13 9 8 11 13 14 13 13 10 11 9 10 9 11 12 10 12 12 10 10 9 9 8 13 15 17 15 14 16 16 14 14 17 19 19 18 18 18 17 17 16 15 13 12
11 12 10 13 13 13 12 12 13 13 11 10 11 10 11 14 12 13 12 11 10 10 9 10 15 13 13 13 13 13 14 14 14 14 17 17 17 15 17 17 16 16 15 13 12
11 12 10 11 11 12 11 13 12 12 12 13 13 10 10 12 12 13 12 12 13 12 13 10 15 14 15 14 13 15 13 13 13 13 14 15 16 12 15 16 16 16 15 13 12
10 8 10 10 12 13 13 12 11 10 10 9 10 10 11 10 8 8 8 10 11 13 13 14 14 15 17 15 14 17 14 13 14 13 13 15 14 13 14 15 15 15 15 14 12

GFSSW_con_lsi_144.txt.gz
Lid_Strength_Index
-2 -2 -2 -2 -2 -1 -1 -1 -1 -1 -1 -1 -1 -1 -1 -1 1 3 5 2 2 1 2 5 6 7 7 8 8 8 13 15 14 12 11 12 12 11 9 7 6 6 5 4 2
-1 -2 -2 -2 -2 -1 -1 -1 -1 -1 -1 -1 -1 -1 -0 0 2 4 1 -1 -1 0 4 6 8 8 9 9 9 8 13 13 11 10 12 11 12 11 10 8 8 8 5 3 3
-1 -1 -2 -2 -2 -1 -1 -1 -1 -1 -1 -1 -1 -1 -1 1 4 4 -1 -2 -1 1 3 5 6 8 9 10 9 11 11 10 9 8 9 11 12 11 10 10 7 8 6 4 3
-1 -1 -1 -1 -2 -1 -1 -1 -1 -1 -1 -1 -1 -1 -1 1 11 4 -2 -2 -1 2 3 4 7 8 10 10 9 12 11 10 8 8 10 11 11 12 11 9 6 5 4 4 4
-1 -1 -1 -1 -1 -1 -1 -1 -1 -1 -1 -1 -1 -1 1 5 6 1 -1 -1 1 3 4 5 6 9 9 11 9 10 10 10 9 10 9 11 11 12 12 11 8 4 4 4 4
-1 -1 -1 -1 -1 -1 -1 -1 -1 -1 -1 -1 -1 -1 3 8 1 -0 0 2 3 3 5 5 5 6 9 10 10 9 10 10 9 9 10 12 12 12 11 11 6 5 5 5 4
-1 -1 -1 -1 -1 -1 -1 -1 -1 -1 -1 -1 -1 0 4 6 1 -0 1 2 2 3 5 4 4 5 6 10 9 9 10 9 9 9 11 12 13 14 11 11 8 6 5 5 4
-0 -1 -1 -1 -1 -1 -1 -1 -1 -1 -1 -1 -1 1 6 1 0 1 1 2 2 3 4 4 3 5 7 8 9 12 10 14 9 8 9 11 15 12 11 12 12 6 6 5 5
-0 -0 -1 -1 -1 -1 -1 -1 -1 -1 -2 -1 2 4 7 0 3 1 1 3 2 2 3 3 5 7 8 10 12 12 16 14 12 8 10 13 15 12 9 12 12 11 7 6 5
-0 -0 -1 -1 -1 -1 -1 -1 -1 -1 -0 1 2 6 4 6 3 2 2 1 4 4 5 5 8 10 10 12 17 15 15 13 13 10 10 13 15 13 11 11 11 12 11 7 6
-0 -1 -1 -1 -1 -1 -0 1 4 5 4 7 6 7 5 3 2 3 2 3 4 6 10 8 11 13 11 11 10 11 13 13 11 9 11 11 13 13 12 13 13 13 13 10 7
-0 -0 -1 -1 -1 -1 0 4 4 4 8 5 4 5 3 3 7 5 2 7 8 11 9 11 13 10 10 10 11 11 13 14 11 9 11 11 12 11 11 12 11 12 13 12 9
-0 -0 -0 -1 -1 0 2 4 2 3 9 7 6 6 5 4 7 7 4 6 9 11 11 12 11 8 10 11 12 12 13 13 13 12 11 12 13 12 11 12 12 11 12 11 10
-0 -0 -0 -0 2 2 4 2 1 5 15 11 8 6 5 5 9 4 3 6 9 11 10 11 8 10 11 12 11 15 11 11 12 13 17 12 19 13 11 11 13 12 12 12 11
0 -0 -0 0 4 4 2 1 3 8 25 11 8 3 5 7 7 7 4 6 11 11 10 13 11 11 12 12 10 13 10 11 12 14 15 15 18 17 13 14 12 12 12 11 11
-0 -0 -0 2 3 2 1 1 5 19 26 12 8 9 9 8 9 7 7 5 6 11 11 11 9 9 10 9 9 9 11 12 13 14 19 15 16 16 14 14 12 12 12 10 11
0 0 1 3 5 2 2 4 15 24 15 13 11 9 10 10 10 9 10 11 12 15 15 12 11 10 9 12 10 11 13 19 20 20 20 15 16 15 13 14 12 12 12 10 10
-0 0 2 3 2 2 3 11 23 20 17 9 10 10 12 10 10 10 11 13 9 12 14 15 17 12 9 10 13 13 13 18 22 22 20 18 18 15 12 10 11 12 12 11 11
0 2 4 3 1 2 7 15 20 17 12 11 11 13 13 11 11 11 12 12 10 10 14 16 15 11 9 9 9 13 16 11 16 22 21 20 18 15 14 15 14 13 14 14 12
3 5 5 2 1 4 10 16 15 12 9 10 15 12 15 13 13 12 12 10 10 8 8 12 16 11 10 9 9 11 10 16 16 21 22 19 20 17 16 14 13 15 14 14 14
5 8 4 1 2 8 14 15 12 9 9 12 13 14 14 13 12 13 13 11 9 9 8 10 13 14 11 13 14 13 14 14 14 16 19 22 19 16 13 13 13 12 12 14 14
6 12 3 2 10 10 13 13 9 10 9 10 11 12 12 12 12 12 12 11 8 8 12 10 12 16 14 10 9 10 13 13 17 18 19 20 17 16 16 16 15 15 15 15 14
8 8 3 4 13 13 12 13 12 12 11 12 12 11 10 12 14 11 11 8 8 9 10 10 13 17 16 13 12 13 12 12 12 15 17 19 16 16 17 17 16 16 16 15 14
8 11 8 7 10 11 13 14 14 11 11 10 11 10 11 12 11 13 12 9 7 8 7 10 13 15 17 15 13 15 13 12 13 17 16 16 14 16 16 17 15 16 15 16 14
10 11 10 13 12 12 11 12 14 14 12 11 12 11 12 14 13 13 11 10 9 9 9 11 16 13 13 12 12 13 13 13 14 13 15 14 15 13 14 15 15 15 16 15 14
12 11 10 12 11 12 12 12 13 14 13 14 13 11 11 13 12 13 11 11 13 10 11 11 18 14 15 13 12 14 13 12 12 12 12 12 13 12 12 15 15 15 15 15 14
10 9 9 11 13 13 14 13 13 12 11 11 11 11 12 10 9 9 8 9 10 11 13 13 15 16 19 14 15 17 13 13 12 11 12 14 12 11 12 13 13 14 15 15 13

GFSSW_con_lsi_147.txt.gz
Lid_Strength_Index
-2 -2 -2 -2 -1 -1 -1 -1 -1 -1 -1 -1 -1 -1 -1 -0 0 2 5 2 1 1 2 5 6 6 6 9 8 8 13 15 13 13 12 12 12 11 10 8 7 6 6 4 3
-1 -2 -2 -2 -1 -1 -1 -1 -1 -1 -1 -1 -1 -1 -1 0 2 3 1 -1 -1 -0 5 6 8 7 9 9 10 9 13 12 11 10 12 11 12 12 11 10 9 9 6 3 3
-1 -1 -2 -2 -1 -1 -1 -1 -1 -1 -1 -1 -1 -1 -1 0 5 5 -1 -2 -2 0 3 5 6 7 9 9 10 10 11 10 10 9 9 11 12 11 11 12 7 7 6 4 4
-1 -1 -1 -1 -1 -1 -1 -1 -1 -1 -1 -1 -1 -1 -1 1 12 4 -1 -2 -1 2 4 5 6 7 9 10 9 12 10 11 9 9 9 10 11 12 11 10 8 5 4 4 4
-1 -1 -1 -1 -1 -1 -1 -1 -1 -1 -1 -1 -1 -1 1 5 6 1 -1 -1 2 3 4 5 6 7 10 10 10 12 11 10 9 10 10 10 11 12 12 10 9 4 4 4 4
-0 -1 -1 -1 -1 -1 -1 -1 -1 -1 -1 -1 -1 -1 3 9 1 -0 0 2 3 4 5 5 6 6 8 10 10 10 10 9 8 9 9 11 11 11 11 10 6 5 5 5 4
-0 -1 -1 -1 -1 -1 -1 -1 -1 -1 -1 -1 -1 0 4 6 1 1 1 2 2 4 5 5 5 6 7 10 8 9 11 9 8 8 10 10 12 13 11 12 7 6 5 5 4
-0 -0 -0 -1 -1 -1 -1 -1 -1 -1 -1 -1 -1 1 6 1 1 1 2 3 3 2 4 4 4 6 6 7 9 11 12 15 10 8 8 10 13 12 11 12 11 7 6 5 5
2 -0 -0 -1 -1 -1 -1 -1 -1 -1 -1 -1 2 3 7 -0 3 1 2 3 3 3 3 3 4 7 7 10 12 11 15 14 12 8 9 10 12 10 10 12 13 11 7 6 5
0 -0 -0 -1 -1 -1 -1 -1 -1 -1 0 1 2 6 5 6 3 2 2 2 4 4 5 6 7 10 10 12 17 15 15 14 14 10 10 12 14 11 12 11 11 12 10 7 6
0 -0 -0 -1 -1 -1 -0 1 5 6 4 7 7 7 5 3 2 3 2 3 4 6 10 8 11 13 11 11 12 12 13 13 11 9 11 12 11 10 10 13 13 13 13 11 7
1 -0 -0 -0 -1 -1 1 4 4 3 8 5 5 5 3 3 7 5 2 7 8 11 9 11 13 10 9 10 12 13 13 14 11 9 11 12 12 11 10 10 12 12 13 13 11
1 1 -0 -0 -1 0 3 3 1 2 8 7 5 6 5 4 7 7 4 6 9 11 11 13 11 8 10 12 13 13 14 13 13 11 10 12 13 12 10 10 9 10 11 11 12
0 1 -0 0 2 2 4 3 1 5 12 11 8 6 5 5 9 4 3 6 9 11 10 11 9 10 11 12 11 15 11 12 13 14 17 11 19 13 11 10 10 10 10 10 11
-0 1 -0 0 3 4 3 3 5 7 20 10 8 4 5 8 7 7 4 7 11 11 10 12 11 11 12 12 10 13 10 11 12 14 14 14 17 16 11 12 11 10 10 10 10
-0 1 0 2 2 3 3 4 5 13 23 12 8 9 9 8 9 7 7 5 7 11 11 11 10 10 10 9 9 9 11 11 12 14 19 15 16 15 14 12 12 10 9 9 10
-0 0 1 2 5 2 3 6 14 17 14 13 12 10 10 11 10 9 10 11 13 15 15 12 12 10 10 12 11 11 14 19 20 20 20 16 16 14 12 12 12 11 11 11 10
-0 2 1 2 2 2 4 11 20 20 15 10 10 10 12 10 10 10 11 12 10 12 16 16 18 12 9 11 13 12 13 18 22 21 19 17 18 14 12 10 9 11 12 11 12
-0 3 3 2 2 2 8 15 18 18 14 11 10 13 12 11 11 12 12 12 10 10 15 16 16 11 10 9 10 13 16 11 16 17 19 18 16 14 13 13 12 11 11 11 12
3 4 4 2 2 4 11 15 17 13 11 10 14 12 15 13 14 13 12 11 11 9 9 13 16 12 10 9 9 11 10 16 15 21 22 18 17 16 15 14 13 12 12 11 12
3 7 4 1 2 7 14 16 14 12 10 12 13 14 14 13 13 13 13 12 9 10 8 11 13 14 11 13 13 13 14 14 14 16 20 21 16 13 12 11 11 12 12 12 12
6 12 3 2 9 10 13 13 10 12 11 11 12 12 13 12 13 13 13 12 9 8 11 9 12 16 14 10 9 10 12 13 17 19 17 18 16 12 14 14 14 14 14 13 13
10 8 3 4 13 12 11 13 12 12 12 12 12 11 11 12 14 11 11 9 8 9 11 10 13 17 16 13 11 13 12 11 12 13 17 19 16 11 14 15 15 15 14 14 14
7 11 8 6 9 11 13 14 15 12 11 11 11 10 12 12 12 13 12 9 8 8 7 8 12 15 17 16 13 15 13 12 13 17 16 16 14 11 14 14 15 15 15 15 15
9 10 9 12 11 11 12 14 14 15 13 11 12 11 12 13 13 14 11 10 8 8 8 11 16 14 13 12 13 14 13 13 14 14 16 14 14 11 9 9 9 14 15 15 14
10 10 9 11 11 12 11 13 13 15 13 14 13 12 12 13 13 14 12 12 13 11 11 10 19 14 15 13 13 14 14 15 13 12 13 13 13 8 8 8 9 13 15 15 14
9 8 9 10 11 13 13 13 13 13 13 12 11 12 12 11 10 9 10 10 11 12 12 12 16 18 21 15 15 19 16 14 13 11 12 15 11 9 8 8 9 9 12 14 14